SL-3 R/B, 11963

Orbit data source: Space-Track

SL-3 R/B, 11963 is space debris in LEO originally from a launch on Tue, 09 Sep 1980 UTC launched from the Plesetsk Missile And Space Complex (PKMTR). Debris objects in space refer to the collection of defunct objects orbiting the Earth. Examples of debris include non-operational satellites, rocket bodies, and fragments generated from explosions, collisions, or faulty payload assembly.

Loading next visibility...
Identifier
11963, 1980-073B
Orbit
LEO
Country
Flag of CISCIS
Related business
Manufacturer
Progress
Mission
Spacecraft
Bus & Motor
BLOK-E, Unknown motor
Mass
1,440 kg wet, 1,440 kg dry
Launch date (UTC)
1980-09-09 (45 years ago)
Launch vehicle
Unknown
Launch site
Plesetsk Missile And Space Complex (PKMTR)
Object type
Payload
Rocket body
Debris
Shape & HBR
Unknown
Radar Cross Section
Large (>1 m²)

Expand to show TLE details & history
Last TLE update: 12 hours ago

TLE from 12 hours ago
0 SL-3 R/B
1 11963U 80073B   25300.53398963  .00000315  00000-0  16591-3 0  9998
2 11963  81.2795  43.3353 0076075  70.7448 290.1932 14.10131291320622
Epoch: 2025-10-27T12:48Z
TLE epoch observation values (Epoch: 2025-10-27T12:48:56.704Z)
Latitude
-0.00007°
Longitude
174.96456°
Altitude
843.185 km
Speed
7.441 km/s
True Right ascension
02h 53m 20s
True Declination
0° 00' 00"
Sunlit
Object was in full shadow at epoch
Visualization orbit readout
Latitude
Unknown
Longitude
Unknown
Altitude
Unknown
Speed
Unknown
Apparent Right ascension
Unknown
Apparent Declination
Unknown
Sunlit
N/A
Visualization observer readout
Local Sidereal Time
20:10:36
Azimuth
Unknown
Elevation
Unknown
Doppler factor
Unknown
Orbital elements
Apogee altitude
911.129 km
Perigee altitude
801.06 km
Semi-major axis
7,234.232 km
Eccentricity
0.00761
Inclination
81.2795°
RAAN
43.3353°
Arg. of periapsis
70.7448°
True anomaly
289.37236°
Mean anomaly
290.1932°
Eccentric anomaly
289.78305°
Mean motion
3.5274 °/min
Orbital period
102.06 mins
BSTAR
0.00016591
Loading maneuver chart data...
Computing Atmospheric mass density...
Loading historical data...
Loading historical data...
Loading historical data...
Loading historical data...
Loading historical data...
Loading historical data...
Loading historical data...

Documentation

Showing up to 5 results
|